[[{"header":{"parameterUnit":"m.s-1","parameterCategory":1,"la1":30.2991,"la2":30.254,"lo1":-89.0895,"lo2":-89.0444,"dy":0.0017,"dx":0.0017,"nx":28,"ny":28,"refTime":"2024-02-12T03:00:00:Z","depth":0,"parameterNumber":2,"parameterNumberName":"U-component_of_WINDS"},"data":[0,0,0,0,0,0,0,0,0,0,0,0,0,0,0,0,0,0,0,0,0,0,0,0,0,0,0,0,0,0,0,0,0,0,0,0,0,0,0,0,0,0,0,0,0,0,0,0,0,0,0,0,0,0,0,0,0,0,0.8621,0.8624,0,0.8886,0.8889,0.8892,0.8984,0.8983,0.8982,0.8981,0.9256,0.9264,0.9272,0,0,0,0,0,0,0,0,0,0,0,0,0,0.8194,0.8201,0.8621,0.8624,0.8627,0.8886,0.8889,0.8893,0.8984,0.8983,0.8982,0.8981,0.9253,0.9263,0.9273,0,0,0,0,0,0,0,0,0,0,0,0,0,0.8411,0.8203,0.862,0.8704,0.8714,0.8885,0.8889,0.8894,0.8985,0.8983,0.8981,0.898,0.925,0.9262,0.9274,0.9382,0,0,0.9312,0.9318,0,0,0,0,0,0,0,0,0.8398,0.8426,0.8689,0.8699,0.871,0.89,0.8839,0.9058,0.8985,0.8882,0.8981,0.8979,0.9139,0.916,0.9214,0.9395,0.9406,0.9313,0.9321,0.9326,0.933,0,0,0,0,0,0,0,0.8383,0.8416,0.8726,0.8692,0.8706,0.8728,0.8757,0.8881,0.9016,0.8891,0.8898,0.8928,0.9145,0.9201,0.9221,0.9411,0.9313,0.9324,0.9332,0.9336,0.9689,0.9691,0,0,0,0,0,0,0.8354,0.8402,0.8718,0.8734,0.8547,0.8737,0.877,0.8841,0.9015,0.904,0.8929,0.8931,0.9181,0.9206,0.9231,0.9367,0.9326,0.9338,0.9345,0.9687,0.969,0.9692,0,0,0,0,0,0,0.8344,0.8381,0.8707,0.857,0.8613,0.8746,0.8825,0.8847,0.8904,0.9044,0.9068,0.8962,0.9181,0.9213,0.9343,0.9378,0.9343,0.9355,0.9685,0.9688,0.9691,0.9641,0,0,0,0,0,0,0.8332,0.8377,0.842,0.857,0.862,0.8814,0.8828,0.8853,0.8925,0.893,0.9082,0.9105,0.9182,0.9323,0.9355,0.9394,0.9364,0.9683,0.9686,0.969,0.964,0.9642,0.9643,0,0,0,0,0,0.8316,0.8397,0.8422,0.8459,0.8677,0.8816,0.8845,0.8931,0.8927,0.8971,0.906,0.9101,0.9368,0.9336,0.9372,0.9416,0.9681,0.9685,0.9689,0.9639,0.9641,0.9643,0,0,0,0,0,0,0.825,0.8419,0.8448,0.858,0.8682,0.8831,0.889,0.8931,0.9038,0.9039,0.9141,0.9174,0.9295,0.9368,0.933,0.9527,0.9527,0.9538,0.9476,0.9479,0.948,0.9462,0.9375,0,0,0,0,0,0.825,0.8349,0.8491,0.8593,0.8643,0.8757,0.8821,0.8878,0.8989,0.9034,0.9133,0.9239,0.9347,0.9417,0.9524,0.9649,0.9683,0.9697,0.9698,0.9699,0.9709,0.9778,0.9785,0.9706,0.9706,0.9706,0,0,0.8253,0.8357,0.8414,0.8583,0.8669,0.8769,0.8794,0.8899,0.8974,0.905,0.9178,0.9253,0.9379,0.9506,0.9567,0.957,0.9737,0.9704,0.9703,0.9714,0.9783,0.979,0.9797,0.9709,0.9708,0.9708,0,0,0.8309,0.8398,0.8492,0.8577,0.8706,0.878,0.8802,0.8944,0.8996,0.9125,0.9183,0.9273,0.9458,0.9544,0.9612,0.9694,0.9735,0.9725,0.9735,0.9801,0.9808,0.9814,0.9843,0.9852,0.9734,0.9734,0.9734,0,0.8297,0.845,0.8536,0.8637,0.8709,0.8778,0.8874,0.8952,0.911,0.9158,0.9159,0.9389,0.9479,0.9625,0.9644,0.9697,0.9725,0.9711,0.9799,0.9807,0.9814,0.9842,0.9853,0.9732,0.9732,0.9733,0.9733,0,0.8428,0.8532,0.8593,0.8741,0.8819,0.8917,0.9017,0.9086,0.9133,0.9206,0.9335,0.9444,0.9573,0.9611,0.966,0.9764,0.9762,0.9779,0.9782,0.9818,0.9846,0.9858,0.9729,0.973,0.9731,0.9731,0,0,0.8456,0.8646,0.8667,0.8734,0.8878,0.8961,0.906,0.9184,0.9241,0.9345,0.9431,0.9582,0.9598,0.9675,0.9733,0.979,0.9847,0.9801,0.9806,0.9807,0.9967,0.9954,0.9966,0.9872,0.9875,0.9877,0.9956,0,0.8532,0.8714,0.8791,0.8936,0.9033,0.9097,0.9183,0.928,0.935,0.9441,0.9518,0.9623,0.9636,0.9683,0.9742,0.9827,0.9881,0.9822,0.9954,0.9958,0.9923,0.9981,0.9969,1.0039,0.9968,0.997,0.9971,0,0.8648,0.875,0.8904,0.9034,0.9077,0.9153,0.9271,0.9358,0.9468,0.9514,0.9597,0.9651,0.9756,0.9747,0.9893,0.9851,0.9908,0.9957,0.9962,0.998,0.9969,1.0002,1.0064,1.0075,0.999,0.9989,0.9987,0,0.8653,0.8829,0.8944,0.8999,0.9153,0.9204,0.9271,0.9379,0.9448,0.955,0.9595,0.9708,0.9771,0.9857,0.9939,0.9925,1.0076,1.0075,1.0118,1.0116,1.0151,1.0148,1.0224,1.0183,1.0183,1.0183,1.0183,0,0.8732,0.8824,0.8948,0.9019,0.9123,0.9209,0.9309,0.938,0.9475,0.956,0.9621,0.9699,0.9802,0.9892,0.9957,1.0067,1.0095,1.0135,1.0152,1.0131,1.0126,1.0173,1.0171,1.0186,1.0185,1.0185,1.0184,0,0.8758,0.8845,0.8974,0.9107,0.9142,0.9213,0.9326,0.9397,0.9466,0.9572,0.9602,0.9712,0.9821,0.991,1.0054,1.0097,1.0212,1.0231,1.0175,1.0185,1.0223,1.0218,1.0334,1.0353,1.0297,1.0297,1.0297,0,0.8805,0.8876,0.9015,0.9076,0.9141,0.9238,0.9306,0.9391,0.9461,0.9588,0.9643,0.9755,0.9851,1.0022,1.0115,1.0224,1.0246,1.0279,1.0264,1.0239,1.0248,1.0243,1.0251,1.0281,1.0282,1.0282,1.0282,0,0.8877,0.8915,0.9012,0.9122,0.9202,0.9293,0.9386,0.9432,0.9533,0.9607,0.9719,0.9792,0.9936,1.0048,1.0165,1.0233,1.0275,1.0285,1.0301,1.0283,1.0248,1.0267,1.0181,1.0283,1.0283,1.0283,1.0283,1.0283,0.8916,0.8982,0.9089,0.9193,0.9271,0.9355,0.9427,0.9503,0.9597,0.9721,0.9764,0.9878,0.9982,1.0144,1.0212,1.0301,1.0306,1.0329,1.0335,1.034,1.0338,1.023,1.0323,1.0323,1.0323,1.0323,1.0323,0,0.8993,0.9063,0.9158,0.9285,0.9366,0.9393,0.9496,0.9562,0.9662,0.9755,0.9845,0.9971,1.0078,1.0176,1.0287,1.0339,1.0361,1.0366,1.0364,1.0379,1.0327,1.0303,1.0346,1.0346,1.0346,1.0346,1.0346,1.0346,0.9043,0.9155,0.9204,0.9354,0.9424,0.9536,0.9592,0.9668,0.9743,0.988,0.9968,1.003,1.0125,1.0242,1.034,1.0366,1.0404,1.0404,1.0435,1.0386,1.0383,1.038,1.0357,1.0412,1.0412,1.048,1.048,1.0481]},{"header":{"parameterUnit":"m.s-1","parameterCategory":1,"la1":30.2991,"la2":30.254,"lo1":-89.0895,"lo2":-89.0444,"dy":0.0017,"dx":0.0017,"nx":28,"ny":28,"refTime":"2024-02-12T03:00:00:Z","depth":0,"parameterNumber":3,"parameterNumberName":"V-component_of_WINDS"},"data":[0,0,0,0,0,0,0,0,0,0,0,0,0,0,0,0,0,0,0,0,0,0,0,0,0,0,0,0,0,0,0,0,0,0,0,0,0,0,0,0,0,0,0,0,0,0,0,0,0,0,0,0,0,0,0,0,0,0,2.6575,2.6579,0,2.6985,2.699,2.6995,2.7111,2.7109,2.7107,2.7104,2.7553,2.7566,2.758,0,0,0,0,0,0,0,0,0,0,0,0,0,2.5917,2.5928,2.6575,2.658,2.6585,2.6984,2.699,2.6996,2.7112,2.7109,2.7106,2.7103,2.7548,2.7565,2.7582,0,0,0,0,0,0,0,0,0,0,0,0,0,2.6253,2.5932,2.6574,2.669,2.6705,2.6983,2.699,2.6997,2.7112,2.7109,2.7105,2.7102,2.7542,2.7563,2.7584,2.7785,0,0,2.7649,2.7658,0,0,0,0,0,0,0,0,2.6234,2.6277,2.6668,2.6683,2.6699,2.6993,2.6923,2.7262,2.7113,2.6958,2.7104,2.71,2.7371,2.7406,2.7492,2.7806,2.7825,2.765,2.7663,2.7672,2.7678,0,0,0,0,0,0,0,2.621,2.626,2.6738,2.6674,2.6693,2.673,2.6774,2.6988,2.7181,2.6972,2.6981,2.7027,2.7379,2.7471,2.7503,2.7832,2.765,2.7669,2.7682,2.769,2.8335,2.834,0,0,0,0,0,0,2.6163,2.624,2.6725,2.675,2.6452,2.6745,2.6794,2.6903,2.7178,2.7216,2.7029,2.703,2.7437,2.7478,2.7519,2.7774,2.7672,2.7692,2.7704,2.8331,2.8336,2.8341,0,0,0,0,0,0,2.6149,2.6205,2.6708,2.6498,2.6564,2.676,2.6881,2.6913,2.7004,2.7221,2.7259,2.7085,2.7435,2.749,2.7717,2.7791,2.7702,2.7721,2.8326,2.8333,2.8339,2.8283,0,0,0,0,0,0,2.6129,2.6199,2.6271,2.6498,2.6575,2.689,2.6886,2.6923,2.7037,2.7043,2.7284,2.7321,2.7437,2.7684,2.7737,2.7819,2.7737,2.832,2.8329,2.8337,2.8279,2.8287,2.8294,0,0,0,0,0,2.6105,2.6245,2.6274,2.6332,2.6668,2.6894,2.6939,2.7061,2.7042,2.7121,2.726,2.7314,2.7773,2.7706,2.7768,2.7856,2.8316,2.8326,2.8336,2.8276,2.8285,2.8293,0,0,0,0,0,0,2.6032,2.6277,2.6312,2.6527,2.6687,2.6913,2.7015,2.7067,2.7244,2.7243,2.7396,2.745,2.7666,2.7785,2.7705,2.8067,2.8047,2.807,2.7981,2.7992,2.7998,2.7967,2.7755,0,0,0,0,0,2.6038,2.6193,2.6403,2.6574,2.6651,2.6818,2.6922,2.7001,2.7178,2.7249,2.7405,2.7582,2.7767,2.7886,2.8068,2.8297,2.8355,2.8389,2.8396,2.84,2.8419,2.8553,2.8571,2.8374,2.8374,2.8374,0,0,2.6059,2.6212,2.6302,2.6562,2.6696,2.686,2.6875,2.7049,2.7175,2.7279,2.7499,2.7621,2.783,2.8057,2.8167,2.8163,2.8486,2.8413,2.8415,2.8432,2.8565,2.8583,2.8599,2.8381,2.8379,2.8378,0,0,2.6178,2.6307,2.6463,2.6595,2.6793,2.6904,2.6941,2.7158,2.724,2.7462,2.7543,2.7701,2.8015,2.8159,2.8275,2.8448,2.8506,2.8504,2.8543,2.8671,2.8687,2.8701,2.8766,2.8787,2.8522,2.8522,2.8522,0,2.618,2.6422,2.6539,2.6707,2.6822,2.6913,2.7077,2.7202,2.7454,2.7536,2.7525,2.7921,2.8068,2.8332,2.8374,2.8463,2.8517,2.8478,2.8673,2.8689,2.8705,2.8768,2.8792,2.852,2.852,2.8521,2.8521,0,2.6415,2.6583,2.6687,2.6916,2.7043,2.7209,2.7359,2.7475,2.7544,2.7657,2.7886,2.8065,2.8285,2.8354,2.8427,2.8631,2.8622,2.8641,2.8625,2.872,2.8782,2.8807,2.8518,2.8519,2.8519,2.8519,0,0,2.6502,2.6791,2.6827,2.6933,2.7159,2.7295,2.7468,2.7673,2.7771,2.7943,2.8096,2.8359,2.8376,2.8507,2.8598,2.8709,2.8839,2.8716,2.8723,2.8734,2.9079,2.9064,2.909,2.8877,2.8882,2.8886,2.9062,0,2.6651,2.6951,2.7061,2.7312,2.7471,2.756,2.7712,2.7871,2.7983,2.8141,2.827,2.8453,2.8461,2.854,2.8655,2.8798,2.8911,2.8787,2.9029,2.9036,2.8974,2.9122,2.9108,2.9265,2.9087,2.9092,2.9095,0,2.6865,2.7028,2.7291,2.7496,2.7567,2.7699,2.7898,2.8045,2.8231,2.8305,2.8448,2.8531,2.8724,2.8694,2.8966,2.8879,2.8986,2.9072,2.9081,2.911,2.9071,2.9158,2.9318,2.9341,2.9134,2.9131,2.9128,0,2.6903,2.719,2.7384,2.7472,2.7716,2.7808,2.7916,2.8097,2.8213,2.8391,2.8469,2.867,2.8781,2.8938,2.9076,2.9041,2.9338,2.9318,2.9411,2.9408,2.9471,2.9466,2.9652,2.9536,2.9536,2.9535,2.9535,0,2.7059,2.7217,2.7404,2.7524,2.7706,2.7835,2.8015,2.8131,2.8291,2.8441,2.8535,2.8676,2.8848,2.9015,2.9126,2.9336,2.9386,2.9457,2.9485,2.945,2.944,2.9523,2.9517,2.9542,2.954,2.9539,2.9538,0,2.7133,2.7263,2.7482,2.7692,2.7749,2.7874,2.806,2.8184,2.8298,2.8488,2.8541,2.8724,2.8924,2.9076,2.934,2.9415,2.9639,2.9668,2.9573,2.9587,2.9672,2.9663,2.992,2.9962,2.9815,2.9816,2.9817,0,2.7224,2.7347,2.7568,2.7669,2.7774,2.7939,2.8056,2.819,2.8311,2.853,2.863,2.8834,2.9005,2.9324,2.9487,2.969,2.9726,2.9802,2.9758,2.9719,2.9731,2.9722,2.9737,2.9809,2.981,2.981,2.9811,0,2.7374,2.7431,2.7591,2.7774,2.7908,2.8062,2.8218,2.8299,2.8463,2.8595,2.8795,2.8926,2.9191,2.9396,2.9614,2.9738,2.9805,2.9822,2.9856,2.9822,2.9762,2.9797,2.9591,2.9817,2.9817,2.9816,2.9816,2.9816,2.7462,2.7574,2.7746,2.7922,2.8051,2.8194,2.832,2.8447,2.8613,2.8831,2.8903,2.9111,2.93,2.9598,2.9723,2.9894,2.9896,2.9943,2.9956,2.9966,2.9963,2.9731,2.9935,2.9935,2.9935,2.9935,2.9935,0,2.7617,2.773,2.789,2.81,2.824,2.8279,2.8455,2.8572,2.875,2.8914,2.9077,2.931,2.9509,2.9686,2.9895,2.9999,3.0036,3.005,3.0046,3.0073,2.9949,2.99,3.0017,3.0017,3.0017,3.0017,3.0017,3.0017,2.7714,2.7907,2.7985,2.8246,2.8362,2.8557,2.8654,2.879,2.8921,2.9172,2.9333,2.9443,2.9616,2.9838,3.0025,3.0073,3.0148,3.0155,3.0211,3.0092,3.0082,3.0072,3.0027,3.0169,3.0169,3.0322,3.0324,3.0325]}]]